| time (UTC) | temp F | wind direction | speed MPH | gust MPH | rain 1hr in | rain 24hr in | rain mn in | humidity % | barometer mb |
| 20260903015558 | 62 | 183 | 14.0 | 22.0 | 0.00 | 0.00 | 0.00 | 88 | 1007.0 |
| 20260903014556 | 62 | 187 | 13.0 | 22.0 | 0.00 | 0.00 | 0.00 | 88 | 1007.0 |
| 20260903013053 | 63 | 163 | 14.0 | 20.0 | 0.00 | 0.00 | 0.00 | 88 | 1007.0 |
| 20260903012552 | 63 | 182 | 14.0 | 23.0 | 0.00 | 0.00 | 0.00 | 88 | 1007.1 |
| 20260903012052 | 63 | 183 | 13.0 | 23.0 | 0.00 | 0.00 | 0.00 | 88 | 1007.1 |
| 20260903010047 | 63 | 184 | 12.0 | 20.0 | 0.00 | 0.00 | 0.00 | 88 | 1007.0 |
| 20260903005546 | 63 | 189 | 13.0 | 20.0 | 0.00 | 0.00 | 0.00 | 88 | 1006.9 |
| 20260903004544 | 63 | 182 | 12.0 | 24.0 | 0.00 | 0.00 | 0.00 | 88 | 1006.9 |
| 20260903004043 | 64 | 198 | 15.0 | 24.0 | 0.00 | 0.00 | 0.00 | 88 | 1006.9 |
| 20260903003542 | 64 | 203 | 15.0 | 24.0 | 0.00 | 0.00 | 0.00 | 88 | 1006.8 |
| 20260903003129 | 64 | 179 | 15.0 | 22.0 | 0.00 | 0.00 | 0.00 | 89 | 1006.8 |
| 20260903003042 | 64 | 179 | 15.0 | 22.0 | 0.00 | 0.00 | 0.00 | 89 | 1006.8 |
| 20260903002540 | 64 | 184 | 14.0 | 22.0 | 0.00 | 0.00 | 0.00 | 89 | 1006.7 |
| 20260903002039 | 64 | 200 | 13.0 | 20.0 | 0.00 | 0.00 | 0.00 | 90 | 1006.7 |
| 20260903001037 | 65 | 194 | 9.0 | 17.0 | 0.00 | 0.00 | 0.00 | 91 | 1006.7 |
| 20260903000536 | 65 | 175 | 11.0 | 16.0 | 0.00 | 0.00 | 0.00 | 91 | 1006.6 |
| 20260903000035 | 65 | 196 | 10.0 | 16.0 | 0.00 | 0.00 | 0.00 | 1006.6 | |
| 20260902235534 | 65 | 183 | 9.0 | 16.0 | 0.00 | 0.00 | 0.00 | 92 | 1006.5 |
| 20260902235033 | 65 | 173 | 10.0 | 15.0 | 0.00 | 0.00 | 0.00 | 92 | 1006.5 |
| 20260902233029 | 65 | 166 | 9.0 | 16.0 | 0.00 | 0.00 | 0.00 | 93 | 1006.3 |
| 20260902232528 | 65 | 175 | 10.0 | 16.0 | 0.00 | 0.00 | 0.00 | 93 | 1006.3 |
| 20260902232029 | 64 | 170 | 10.0 | 16.0 | 0.00 | 0.00 | 0.00 | 93 | 1006.2 |
| 20260902231025 | 64 | 203 | 11.0 | 18.0 | 0.00 | 0.00 | 0.00 | 93 | 1006.2 |
| 20260902230524 | 64 | 204 | 13.0 | 18.0 | 0.00 | 0.00 | 0.00 | 93 | 1006.2 |
| 20260902225522 | 64 | 189 | 11.0 | 17.0 | 0.00 | 0.00 | 0.00 | 93 | 1006.0 |
| 20260902224520 | 64 | 189 | 12.0 | 17.0 | 0.00 | 0.00 | 0.00 | 1005.9 | |
| 20260902223518 | 64 | 172 | 12.0 | 17.0 | 0.00 | 0.00 | 0.00 | 94 | 1005.8 |
| 20260902223017 | 63 | 172 | 10.0 | 17.0 | 0.00 | 0.00 | 0.00 | 94 | 1005.9 |
| 20260902222516 | 62 | 183 | 10.0 | 21.0 | 0.00 | 0.00 | 0.00 | 94 | 1005.8 |
| 20260902221514 | 62 | 193 | 13.0 | 21.0 | 0.00 | 0.00 | 0.00 | 94 | 1005.8 |
| 20260902221013 | 62 | 190 | 14.0 | 20.0 | 0.00 | 0.00 | 0.00 | 94 | 1005.8 |
| 20260902220512 | 61 | 193 | 14.0 | 20.0 | 0.00 | 0.00 | 0.00 | 94 | 1005.7 |
| 20260902220011 | 61 | 177 | 12.0 | 24.0 | 0.00 | 0.00 | 0.00 | 95 | 1005.7 |
| 20260902215510 | 61 | 180 | 14.0 | 24.0 | 0.00 | 0.00 | 0.00 | 95 | 1005.6 |
| 20260902214007 | 61 | 183 | 16.0 | 27.0 | 0.00 | 0.00 | 0.00 | 95 | 1005.5 |
| 20260902213506 | 60 | 198 | 17.0 | 27.0 | 0.00 | 0.00 | 0.00 | 1005.5 | |
| 20260902213007 | 60 | 182 | 17.0 | 23.0 | 0.00 | 0.00 | 0.00 | 94 | 1005.4 |
| 20260902212504 | 60 | 182 | 15.0 | 23.0 | 0.00 | 0.00 | 0.00 | 94 | 1005.3 |
| 20260902212003 | 60 | 163 | 16.0 | 22.0 | 0.00 | 0.00 | 0.00 | 94 | 1005.3 |
| 20260902211502 | 60 | 184 | 13.0 | 21.0 | 0.00 | 0.00 | 0.00 | 94 | 1005.2 |
| 20260902211001 | 60 | 187 | 14.0 | 20.0 | 0.00 | 0.00 | 0.00 | 94 | 1005.2 |
| 20260902210500 | 60 | 183 | 13.0 | 24.0 | 0.00 | 0.00 | 0.00 | 94 | 1005.1 |
| 20260902205959 | 60 | 177 | 14.0 | 24.0 | 0.00 | 0.00 | 0.00 | 94 | 1005.0 |
| 20260902205458 | 60 | 179 | 13.0 | 24.0 | 0.00 | 0.00 | 0.00 | 94 | 1005.0 |
| 20260902204957 | 60 | 165 | 17.0 | 22.0 | 0.00 | 0.00 | 0.00 | 95 | 1005.0 |
| 20260902203955 | 59 | 187 | 14.0 | 28.0 | 0.00 | 0.00 | 0.00 | 94 | 1004.9 |
| 20260902203454 | 59 | 187 | 18.0 | 28.0 | 0.00 | 0.00 | 0.00 | 94 | 1004.9 |
| 20260902202453 | 60 | 172 | 18.0 | 34.0 | 0.00 | 0.00 | 0.00 | 94 | 1004.7 |
| 20260902201951 | 60 | 182 | 19.0 | 34.0 | 0.00 | 0.00 | 0.00 | 94 | 1004.6 |
| 20260902201450 | 60 | 173 | 21.0 | 48.0 | 0.00 | 0.00 | 0.00 | 94 | 1004.4 |
| 20260902200949 | 60 | 172 | 21.0 | 48.0 | 0.00 | 0.00 | 0.00 | 94 | 1004.3 |
| 20260902200448 | 60 | 197 | 23.0 | 48.0 | 0.00 | 0.00 | 0.00 | 94 | 1004.1 |
| 20260902195947 | 60 | 173 | 24.0 | 44.0 | 0.00 | 0.00 | 0.00 | 94 | 1004.1 |
| 20260902195446 | 60 | 168 | 23.0 | 44.0 | 0.00 | 0.00 | 0.00 | 94 | 1004.2 |
| 20260902194444 | 60 | 177 | 22.0 | 41.0 | 0.00 | 0.00 | 0.00 | 94 | 1004.2 |
| 20260902193943 | 60 | 184 | 17.0 | 38.0 | 0.00 | 0.00 | 0.00 | 94 | 1004.3 |
| 20260902193442 | 60 | 182 | 20.0 | 38.0 | 0.00 | 0.00 | 0.00 | 94 | 1004.1 |
| 20260902192941 | 60 | 161 | 21.0 | 28.0 | 0.00 | 0.00 | 0.00 | 93 | 1004.2 |
| 20260902192440 | 60 | 170 | 16.0 | 24.0 | 0.00 | 0.00 | 0.00 | 93 | 1004.1 |
| 20260902191940 | 60 | 184 | 14.0 | 24.0 | 0.00 | 0.00 | 0.00 | 93 | 1004.1 |
| 20260902190937 | 60 | 162 | 11.0 | 24.0 | 0.00 | 0.00 | 0.00 | 93 | 1003.9 |
| 20260902185935 | 60 | 155 | 8.0 | 17.0 | 0.00 | 0.00 | 0.00 | 93 | 1003.8 |
| 20260902185434 | 60 | 141 | 5.0 | 17.0 | 0.00 | 0.00 | 0.00 | 93 | 1003.8 |
| 20260902184432 | 60 | 151 | 7.0 | 12.0 | 0.00 | 0.00 | 0.00 | 93 | 1003.7 |
| 20260902183931 | 59 | 165 | 6.0 | 12.0 | 0.00 | 0.00 | 0.00 | 93 | 1003.7 |
| 20260902183430 | 59 | 163 | 5.0 | 17.0 | 0.00 | 0.00 | 0.00 | 93 | 1003.6 |
| 20260902182929 | 59 | 126 | 9.0 | 17.0 | 0.00 | 0.00 | 0.00 | 93 | 1003.7 |
| 20260902182428 | 59 | 148 | 5.0 | 17.0 | 0.00 | 0.00 | 0.00 | 93 | 1003.6 |
| 20260902181927 | 59 | 138 | 8.0 | 15.0 | 0.00 | 0.00 | 0.00 | 93 | 1003.6 |
| 20260902181426 | 59 | 144 | 7.0 | 15.0 | 0.00 | 0.00 | 0.00 | 93 | 1003.5 |
| 20260902180925 | 59 | 130 | 6.0 | 15.0 | 0.00 | 0.00 | 0.00 | 93 | 1003.5 |
| 20260902175923 | 59 | 134 | 6.0 | 15.0 | 0.00 | 0.00 | 0.00 | 93 | 1003.4 |
| 20260902175422 | 59 | 142 | 5.0 | 15.0 | 0.00 | 0.00 | 0.00 | 93 | 1003.5 |
| 20260902174921 | 59 | 133 | 6.0 | 17.0 | 0.00 | 0.00 | 0.00 | 93 | 1003.5 |
| 20260902174420 | 59 | 131 | 6.0 | 17.0 | 0.00 | 0.00 | 0.00 | 93 | 1003.5 |
| 20260902173919 | 59 | 131 | 9.0 | 17.0 | 0.00 | 0.00 | 0.00 | 93 | 1003.3 |
| 20260902173419 | 59 | 133 | 8.0 | 13.0 | 0.00 | 0.00 | 0.00 | 93 | 1003.4 |
| 20260902172917 | 60 | 127 | 6.0 | 13.0 | 0.00 | 0.00 | 0.00 | 93 | 1003.5 |
| 20260902172416 | 60 | 130 | 8.0 | 12.0 | 0.00 | 0.00 | 0.00 | 93 | 1003.6 |
| 20260902171915 | 60 | 145 | 7.0 | 12.0 | 0.00 | 0.00 | 0.00 | 92 | 1003.6 |
| 20260902170412 | 60 | 133 | 7.0 | 10.0 | 0.00 | 0.00 | 0.00 | 92 | 1003.7 |
| 20260902164910 | 60 | 135 | 5.0 | 15.0 | 0.00 | 0.00 | 0.00 | 92 | 1003.9 |
| 20260902163907 | 60 | 133 | 7.0 | 11.0 | 0.00 | 0.00 | 0.00 | 92 | 1004.0 |
| 20260902162906 | 60 | 133 | 7.0 | 14.0 | 0.00 | 0.00 | 0.00 | 92 | 1004.3 |
| 20260902161903 | 59 | 165 | 6.0 | 14.0 | 0.00 | 0.00 | 0.00 | 92 | 1004.5 |
| 20260902160400 | 59 | 148 | 6.0 | 11.0 | 0.00 | 0.00 | 0.00 | 92 | 1004.8 |
| 20260902154857 | 59 | 158 | 4.0 | 9.0 | 0.00 | 0.00 | 0.00 | 91 | 1005.1 |
| 20260902154356 | 60 | 148 | 4.0 | 9.0 | 0.00 | 0.00 | 0.00 | 91 | 1005.1 |
| 20260902153855 | 60 | 158 | 5.0 | 8.0 | 0.00 | 0.00 | 0.00 | 91 | 1005.1 |
| 20260902153354 | 60 | 131 | 4.0 | 8.0 | 0.00 | 0.00 | 0.00 | 91 | 1005.1 |
| 20260902152853 | 60 | 137 | 6.0 | 9.0 | 0.00 | 0.00 | 0.00 | 91 | 1005.1 |
| 20260902151851 | 60 | 138 | 4.0 | 9.0 | 0.00 | 0.00 | 0.00 | 91 | 1005.1 |
| 20260902151350 | 60 | 130 | 5.0 | 9.0 | 0.00 | 0.00 | 0.00 | 91 | 1005.1 |
| 20260902150348 | 60 | 180 | 5.0 | 9.0 | 0.00 | 0.00 | 0.00 | 90 | 1005.2 |
| 20260902145847 | 60 | 140 | 5.0 | 13.0 | 0.00 | 0.00 | 0.00 | 90 | 1005.3 |
| 20260902145346 | 60 | 145 | 4.0 | 13.0 | 0.00 | 0.00 | 0.00 | 90 | 1005.3 |
| 20260902144845 | 60 | 165 | 4.0 | 13.0 | 0.00 | 0.00 | 0.00 | 90 | 1005.3 |
| 20260902144344 | 60 | 138 | 5.0 | 11.0 | 0.00 | 0.00 | 0.00 | 90 | 1005.3 |
| 20260902143843 | 60 | 133 | 6.0 | 11.0 | 0.00 | 0.00 | 0.00 | 90 | 1005.2 |
| 20260902143342 | 60 | 140 | 5.0 | 15.0 | 0.00 | 0.00 | 0.00 | 90 | 1005.3 |
| 20260902142841 | 60 | 145 | 5.0 | 15.0 | 0.00 | 0.00 | 0.00 | 90 | 1005.3 |
| 20260902142341 | 60 | 155 | 5.0 | 15.0 | 0.00 | 0.00 | 0.00 | 90 | 1005.3 |
| 20260902141839 | 60 | 152 | 9.0 | 15.0 | 0.00 | 0.00 | 0.00 | 90 | 1005.4 |
| 20260902141338 | 60 | 137 | 5.0 | 15.0 | 0.00 | 0.00 | 0.00 | 90 | 1005.4 |
| 20260902140337 | 60 | 144 | 9.0 | 12.0 | 0.00 | 0.00 | 0.00 | 90 | 1005.5 |
| 20260902135838 | 60 | 133 | 9.0 | 10.0 | 0.00 | 0.00 | 0.00 | 89 | 1005.6 |
| 20260902134332 | 60 | 141 | 3.0 | 10.0 | 0.00 | 0.00 | 0.00 | 89 | 1005.8 |
| 20260902133831 | 60 | 140 | 6.0 | 14.0 | 0.00 | 0.00 | 0.00 | 88 | 1005.8 |
| 20260902133330 | 60 | 134 | 7.0 | 14.0 | 0.00 | 0.00 | 0.00 | 88 | 1005.8 |
| 20260902132328 | 60 | 156 | 7.0 | 12.0 | 0.00 | 0.00 | 0.00 | 87 | 1006.0 |
| 20260902130327 | 61 | 161 | 5.0 | 17.0 | 0.00 | 0.00 | 0.00 | 85 | 1006.1 |
| 20260902125823 | 62 | 180 | 7.0 | 14.0 | 0.00 | 0.00 | 0.00 | 85 | 1006.2 |
| 20260902125322 | 62 | 170 | 6.0 | 14.0 | 0.00 | 0.00 | 0.00 | 85 | 1006.3 |
| 20260902124821 | 62 | 184 | 5.0 | 14.0 | 0.00 | 0.00 | 0.00 | 84 | 1006.2 |
| 20260902124320 | 62 | 144 | 7.0 | 14.0 | 0.00 | 0.00 | 0.00 | 85 | 1006.1 |
| 20260902123318 | 62 | 130 | 6.0 | 11.0 | 0.00 | 0.00 | 0.00 | 85 | 1006.1 |
| 20260902122817 | 61 | 154 | 4.0 | 9.0 | 0.00 | 0.00 | 0.00 | 85 | 1006.2 |
| 20260902121815 | 61 | 177 | 6.0 | 15.0 | 0.00 | 0.00 | 0.00 | 85 | 1006.4 |
| 20260902121314 | 62 | 152 | 4.0 | 15.0 | 0.00 | 0.00 | 0.00 | 85 | 1006.5 |
| 20260902120813 | 61 | 137 | 7.0 | 15.0 | 0.00 | 0.00 | 0.00 | 85 | 1006.5 |
| 20260902120312 | 62 | 135 | 6.0 | 15.0 | 0.00 | 0.00 | 0.00 | 85 | 1006.5 |
| 20260902115811 | 62 | 169 | 7.0 | 15.0 | 0.00 | 0.00 | 0.00 | 85 | 1006.6 |
| 20260902115311 | 61 | 142 | 7.0 | 14.0 | 0.00 | 0.00 | 0.00 | 1006.8 | |
| 20260902114809 | 61 | 151 | 8.0 | 13.0 | 0.00 | 0.00 | 0.00 | 1007.0 | |
| 20260902113807 | 61 | 130 | 5.0 | 13.0 | 0.00 | 0.00 | 0.00 | 1007.0 | |
| 20260902113306 | 62 | 138 | 8.0 | 11.0 | 0.00 | 0.00 | 0.00 | 1007.1 | |
| 20260902111804 | 62 | 152 | 6.0 | 15.0 | 0.00 | 0.00 | 0.00 | 86 | 1007.3 |
| 20260902111302 | 62 | 152 | 9.0 | 16.0 | 0.00 | 0.00 | 0.00 | 86 | 1007.4 |
| 20260902110801 | 62 | 134 | 6.0 | 16.0 | 0.00 | 0.00 | 0.00 | 86 | 1007.5 |
| 20260902110300 | 62 | 138 | 5.0 | 16.0 | 0.00 | 0.00 | 0.00 | 86 | 1007.6 |
| 20260902105800 | 62 | 148 | 7.0 | 15.0 | 0.00 | 0.00 | 0.00 | 86 | 1007.6 |
| 20260902105258 | 61 | 163 | 4.0 | 15.0 | 0.00 | 0.00 | 0.00 | 86 | 1007.8 |
| 20260902104757 | 61 | 169 | 7.0 | 15.0 | 0.00 | 0.00 | 0.00 | 87 | 1007.9 |
| 20260902104256 | 61 | 175 | 9.0 | 15.0 | 0.00 | 0.00 | 0.00 | 87 | 1007.9 |
| 20260902103254 | 61 | 189 | 7.0 | 15.0 | 0.00 | 0.00 | 0.00 | 87 | 1008.0 |
| 20260902102753 | 61 | 173 | 7.0 | 15.0 | 0.00 | 0.00 | 0.00 | 87 | 1008.0 |
| 20260902102252 | 61 | 177 | 7.0 | 15.0 | 0.00 | 0.00 | 0.00 | 87 | 1008.1 |
| 20260902101250 | 61 | 158 | 7.0 | 12.0 | 0.00 | 0.00 | 0.00 | 87 | 1008.2 |
| 20260902100749 | 61 | 166 | 6.0 | 12.0 | 0.00 | 0.00 | 0.00 | 88 | 1008.2 |
| 20260902095246 | 61 | 177 | 7.0 | 16.0 | 0.00 | 0.00 | 0.00 | 88 | 1008.6 |
| 20260902094745 | 61 | 175 | 8.0 | 16.0 | 0.00 | 0.00 | 0.00 | 88 | 1008.6 |
| 20260902093242 | 61 | 161 | 9.0 | 15.0 | 0.00 | 0.00 | 0.00 | 89 | 1008.7 |
| 20260902091739 | 61 | 177 | 12.0 | 23.0 | 0.00 | 0.00 | 0.00 | 89 | 1008.8 |
| 20260902091238 | 61 | 175 | 14.0 | 23.0 | 0.00 | 0.00 | 0.00 | 89 | 1008.9 |
| 20260902090236 | 61 | 203 | 15.0 | 21.0 | 0.00 | 0.00 | 0.00 | 89 | 1008.9 |
| 20260902085736 | 61 | 189 | 14.0 | 20.0 | 0.00 | 0.00 | 0.00 | 89 | 1009.0 |
| 20260902085234 | 61 | 177 | 15.0 | 20.0 | 0.00 | 0.00 | 0.00 | 89 | 1009.0 |
| 20260902084733 | 61 | 170 | 12.0 | 20.0 | 0.00 | 0.00 | 0.00 | 89 | 1009.1 |
| 20260902084232 | 61 | 173 | 12.0 | 18.0 | 0.00 | 0.00 | 0.00 | 89 | 1009.2 |
| 20260902083230 | 61 | 182 | 10.0 | 16.0 | 0.00 | 0.00 | 0.00 | 89 | 1009.2 |
| 20260902082729 | 61 | 177 | 8.0 | 16.0 | 0.00 | 0.00 | 0.00 | 89 | 1009.3 |
| 20260902082228 | 61 | 191 | 8.0 | 16.0 | 0.00 | 0.00 | 0.00 | 89 | 1009.3 |
| 20260902081226 | 61 | 190 | 12.0 | 21.0 | 0.00 | 0.00 | 0.00 | 88 | 1009.3 |
| 20260902080725 | 61 | 184 | 8.0 | 21.0 | 0.00 | 0.00 | 0.00 | 88 | 1009.3 |
| 20260902080224 | 62 | 187 | 12.0 | 21.0 | 0.00 | 0.00 | 0.00 | 88 | 1009.4 |
| 20260902075723 | 62 | 176 | 15.0 | 18.0 | 0.00 | 0.00 | 0.00 | 88 | 1009.4 |
| 20260902075222 | 62 | 179 | 10.0 | 18.0 | 0.00 | 0.00 | 0.00 | 88 | 1009.5 |
| 20260902074220 | 62 | 184 | 10.0 | 15.0 | 0.00 | 0.00 | 0.00 | 87 | 1009.7 |
| 20260902073718 | 62 | 180 | 8.0 | 13.0 | 0.00 | 0.00 | 0.00 | 87 | 1009.7 |
| 20260902073217 | 62 | 176 | 8.0 | 19.0 | 0.00 | 0.00 | 0.00 | 87 | 1009.8 |
| 20260902071714 | 62 | 183 | 8.0 | 17.0 | 0.00 | 0.00 | 0.00 | 87 | 1009.9 |
| 20260902070713 | 62 | 175 | 10.0 | 18.0 | 0.00 | 0.00 | 0.00 | 87 | 1010.0 |
| 20260902070212 | 62 | 159 | 8.0 | 18.0 | 0.00 | 0.00 | 0.00 | 87 | 1010.0 |
| 20260902065712 | 62 | 159 | 4.0 | 18.0 | 0.00 | 0.00 | 0.00 | 87 | 1009.9 |
| 20260902065210 | 62 | 163 | 11.0 | 18.0 | 0.00 | 0.00 | 0.00 | 87 | 1009.9 |
| 20260902064708 | 62 | 149 | 8.0 | 17.0 | 0.00 | 0.00 | 0.00 | 87 | 1009.9 |
| 20260902064207 | 62 | 169 | 6.0 | 17.0 | 0.00 | 0.00 | 0.00 | 88 | 1010.0 |
| 20260902063706 | 62 | 173 | 6.0 | 16.0 | 0.00 | 0.00 | 0.00 | 88 | 1009.9 |
| 20260902063207 | 62 | 173 | 7.0 | 18.0 | 0.00 | 0.00 | 0.00 | 87 | 1009.9 |
| 20260902062705 | 62 | 165 | 7.0 | 18.0 | 0.00 | 0.00 | 0.00 | 88 | 1009.9 |
| 20260902062204 | 62 | 154 | 9.0 | 18.0 | 0.00 | 0.00 | 0.00 | 88 | 1010.0 |
| 20260902061202 | 62 | 170 | 9.0 | 13.0 | 0.00 | 0.00 | 0.00 | 88 | 1010.1 |
| 20260902060700 | 62 | 184 | 4.0 | 20.0 | 0.00 | 0.00 | 0.00 | 89 | 1010.1 |
| 20260902060159 | 62 | 182 | 7.0 | 20.0 | 0.00 | 0.00 | 0.00 | 89 | 1010.2 |
| 20260902055703 | 62 | 161 | 8.0 | 20.0 | 0.00 | 0.00 | 0.00 | 89 | 1010.3 |
| 20260902055658 | 62 | 161 | 8.0 | 20.0 | 0.00 | 0.00 | 0.00 | 89 | 1010.3 |
| 20260902055157 | 62 | 170 | 10.0 | 15.0 | 0.00 | 0.00 | 0.00 | 89 | 1010.3 |
| 20260902054656 | 62 | 176 | 4.0 | 15.0 | 0.00 | 0.00 | 0.00 | 89 | 1010.4 |
| 20260902054155 | 62 | 177 | 5.0 | 15.0 | 0.00 | 0.00 | 0.00 | 90 | 1010.4 |
| 20260902053154 | 62 | 137 | 7.0 | 8.0 | 0.00 | 0.00 | 0.00 | 1010.4 | |
| 20260902052653 | 62 | 162 | 4.0 | 18.0 | 0.00 | 0.00 | 0.00 | 90 | 1010.4 |
| 20260902051651 | 62 | 169 | 6.0 | 18.0 | 0.00 | 0.00 | 0.00 | 90 | 1010.3 |
| 20260902051150 | 62 | 182 | 7.0 | 15.0 | 0.00 | 0.00 | 0.00 | 90 | 1010.4 |
| 20260902050649 | 62 | 194 | 7.0 | 15.0 | 0.00 | 0.00 | 0.00 | 90 | 1010.4 |
| 20260902050148 | 62 | 168 | 6.0 | 13.0 | 0.00 | 0.00 | 0.00 | 90 | 1010.5 |
| 20260902044144 | 61 | 176 | 7.0 | 15.0 | 0.00 | 0.00 | 0.00 | 90 | 1010.8 |
| 20260902043643 | 61 | 170 | 9.0 | 13.0 | 0.00 | 0.00 | 0.00 | 90 | 1010.8 |
| 20260902043142 | 62 | 179 | 9.0 | 14.0 | 0.00 | 0.00 | 0.00 | 90 | 1010.8 |
| 20260902042140 | 62 | 197 | 6.0 | 14.0 | 0.00 | 0.00 | 0.00 | 90 | 1010.8 |
| 20260902041639 | 61 | 166 | 10.0 | 12.0 | 0.00 | 0.00 | 0.00 | 90 | 1010.8 |
| 20260902040136 | 61 | 207 | 8.0 | 20.0 | 0.00 | 0.00 | 0.00 | 90 | 1010.7 |
| 20260902035635 | 62 | 172 | 10.0 | 20.0 | 0.00 | 0.00 | 0.00 | 90 | 1010.8 |
| 20260902034633 | 62 | 193 | 13.0 | 17.0 | 0.00 | 0.00 | 0.00 | 90 | 1010.8 |
| 20260902032128 | 61 | 179 | 4.0 | 10.0 | 0.00 | 0.00 | 0.00 | 90 | 1010.9 |
| 20260902031627 | 61 | 177 | 4.0 | 10.0 | 0.00 | 0.00 | 0.00 | 90 | 1010.8 |
| 20260902031126 | 61 | 187 | 7.0 | 9.0 | 0.00 | 0.00 | 0.00 | 90 | 1010.8 |
| 20260902025623 | 61 | 191 | 7.0 | 11.0 | 0.00 | 0.00 | 0.00 | 89 | 1010.9 |
| 20260902025122 | 62 | 168 | 8.0 | 12.0 | 0.00 | 0.00 | 0.00 | 89 | 1010.9 |
| 20260902024120 | 62 | 210 | 8.0 | 12.0 | 0.00 | 0.00 | 0.00 | 89 | 1010.9 |
| 20260902023619 | 62 | 187 | 8.0 | 12.0 | 0.00 | 0.00 | 0.00 | 89 | 1010.9 |
| 20260902023118 | 62 | 197 | 9.0 | 12.0 | 0.00 | 0.00 | 0.00 | 89 | 1010.9 |
| 20260902022617 | 62 | 200 | 9.0 | 18.0 | 0.00 | 0.00 | 0.00 | 89 | 1010.8 |
| 20260902021615 | 62 | 196 | 14.0 | 18.0 | 0.00 | 0.00 | 0.00 | 89 | 1010.8 |
| 20260902021114 | 62 | 207 | 11.0 | 17.0 | 0.00 | 0.00 | 0.00 | 88 | 1010.8 |
| 20260902020613 | 63 | 203 | 11.0 | 17.0 | 0.00 | 0.00 | 0.00 | 88 | 1010.8 |
| 20260902020112 | 63 | 201 | 12.0 | 17.0 | 0.00 | 0.00 | 0.00 | 88 | 1010.8 |